Probability
1 1 3 5 6 8 9 7 6 5 4 2 1 1 2 4 4 5 7 7 5 3 1 1 3 5 6 6 6 7 5 3 1 2 2 3 2 2 1 1 2 3 6
2 2 3 4 6 9 9 7 5 4 4 3 2 2 3 3 4 5 6 7 6 4 1 2 4 6 6 5 5 6 5 3 1 1 1 2 1 1 1 1 2 3 4
3 3 3 4 7 9 9 6 4 3 3 3 3 3 3 3 4 5 6 7 7 4 2 2 5 5 3 3 4 6 6 2 0 0 1 1 1 1 1 2 2 2 2
3 3 3 5 7 9 9 7 4 3 3 3 3 2 2 3 4 5 5 6 6 5 2 2 3 2 2 3 4 5 5 3 1 0 0 0 0 1 2 3 2 1 0
2 1 2 6 8 9 9 8 5 3 3 3 2 1 1 1 2 3 4 5 5 5 4 2 1 2 2 3 3 4 4 3 1 0 0 0 0 1 2 2 1 0 0
2 1 2 6 8 9 9 9 6 4 4 3 2 1 0 0 0 1 2 3 4 5 5 3 1 2 3 4 3 3 3 2 1 0 0 0 0 1 1 1 0 0 0
2 1 2 5 7 7 8 8 7 6 5 4 3 1 0 0 0 0 0 1 2 4 5 4 2 2 4 5 4 3 3 2 1 0 0 0 0 0 0 0 0 0 0
3 2 2 4 6 6 6 6 6 6 6 5 3 1 0 0 0 0 0 0 0 2 4 4 3 3 4 4 4 3 1 1 0 0 0 0 0 0 0 0 0 0 0
3 3 4 5 6 5 5 6 6 6 6 5 3 1 0 0 0 0 1 1 0 1 2 3 3 3 3 3 3 2 0 0 0 0 0 0 0 0 0 0 0 0 0
3 3 5 5 5 4 5 6 6 5 4 3 2 1 0 0 0 0 1 1 1 1 3 3 2 3 3 4 4 3 1 0 0 0 0 0 0 0 1 1 1 0 0
1 2 3 3 3 2 3 4 4 4 3 3 2 1 0 0 0 0 1 2 2 3 3 5 5 4 5 5 5 5 3 1 0 0 0 0 0 1 3 3 1 0 0
0 1 1 1 1 0 1 3 3 3 3 3 2 1 0 0 0 0 0 1 2 3 4 6 6 6 5 5 5 5 4 1 0 0 0 0 0 1 3 3 2 0 0
0 0 0 0 0 0 1 2 3 3 3 3 3 2 1 1 0 0 0 1 1 2 3 4 4 4 4 4 4 4 3 1 0 0 0 0 1 1 3 4 2 0 0
1 1 0 0 0 0 1 1 2 2 2 2 2 2 2 2 1 0 0 0 0 1 1 1 2 3 4 4 3 2 1 0 0 0 0 1 2 2 3 2 1 0 0
2 1 0 0 0 0 0 0 0 1 1 1 1 1 3 2 1 0 0 0 0 0 0 0 1 3 5 4 2 1 0 0 0 0 0 1 2 2 1 1 0 0 1
3 3 1 0 0 0 0 0 0 0 0 0 0 1 2 2 1 0 0 0 0 0 0 0 1 3 4 3 1 0 0 0 0 0 0 1 1 1 0 0 0 0 1
4 5 3 1 0 0 0 0 0 0 0 0 0 0 1 1 0 0 0 0 0 0 0 0 1 1 1 1 0 0 0 0 0 0 0 0 0 0 0 1 0 0 1
5 6 5 2 1 0 0 0 0 0 0 0 0 0 0 0 0 0 0 0 0 0 0 1 1 0 0 0 0 0 0 0 0 0 0 0 0 0 0 0 0 0 0
5 5 3 1 0 0 0 0 0 0 0 0 0 1 1 1 0 0 0 0 0 0 0 1 2 1 0 0 0 0 0 0 0 0 0 0 0 0 0 0 0 0 0
4 3 1 0 0 0 0 0 0 0 0 1 0 1 2 2 1 1 2 1 1 1 1 1 2 1 0 0 0 0 0 0 0 0 0 0 0 0 0 0 0 0 0
3 2 1 1 1 1 0 0 0 0 0 1 1 1 3 3 3 4 4 3 2 2 2 1 1 1 0 0 0 0 0 0 0 0 0 0 0 0 0 0 0 0 0
3 2 1 2 2 2 1 0 0 0 1 1 2 3 3 4 6 6 5 4 3 3 3 2 2 1 1 1 0 0 0 0 0 0 0 0 0 0 0 0 0 0 1
5 3 3 3 3 3 2 1 1 1 2 3 3 3 4 5 6 6 5 3 3 3 3 3 2 2 2 1 0 0 0 0 0 0 0 0 0 1 0 0 1 1 1
7 5 3 3 3 3 3 3 3 3 3 3 3 4 5 6 6 5 4 3 2 2 2 2 1 1 2 1 0 0 0 0 0 0 0 0 0 0 0 0 1 1 1
8 6 4 3 4 3 4 5 5 4 3 3 4 5 6 5 5 3 2 3 2 1 1 1 1 1 1 1 0 0 0 0 0 0 0 0 0 0 0 0 1 1 0
9 6 4 4 4 4 4 6 6 5 4 3 4 6 5 4 3 2 1 2 2 1 0 0 0 1 1 1 1 0 0 0 0 0 0 0 0 0 0 0 0 0 0
Wind_Speed
3 4 9 11 11 11 12 11 11 11 12 12 12 12 13 13 13 13 13 13 12 12 12 11 11 12 12 12 12 13 13 12 12 13 13 12 12 12 12 12 11 8 12
7 6 10 11 11 11 11 11 11 11 11 11 12 12 12 12 13 13 13 12 12 12 12 11 11 11 11 12 12 12 12 12 12 12 12 11 11 11 11 11 10 7 11
7 6 8 11 11 11 11 11 11 11 11 11 11 11 11 12 12 12 12 12 11 11 11 11 10 10 10 11 11 11 10 11 12 12 11 6 7 11 11 11 11 11 11
8 6 7 11 11 11 11 10 11 11 11 11 11 10 10 11 11 11 11 11 10 10 10 10 10 10 10 10 10 9 9 10 12 11 5 4 5 10 11 11 11 11 11
6 5 7 12 11 11 10 10 10 11 11 11 10 10 10 10 11 11 10 10 9 9 10 10 10 10 9 9 9 8 8 10 11 8 5 4 4 9 11 11 11 10 10
6 5 7 11 11 11 10 10 10 10 10 10 10 9 9 9 10 10 9 8 8 9 10 10 10 9 9 8 8 8 8 9 8 5 5 5 4 9 11 11 10 10 9
6 4 6 10 10 10 10 10 10 10 10 9 9 9 8 9 9 9 9 8 8 9 9 10 10 9 8 8 8 7 8 8 5 5 4 4 5 10 11 11 10 10 9
7 5 5 9 10 10 10 9 9 9 9 9 8 8 8 8 8 8 8 8 7 8 9 9 9 8 8 7 6 6 6 6 6 5 4 4 8 10 11 10 10 10 9
7 5 3 4 6 9 9 9 9 9 8 8 8 7 7 7 8 8 7 7 6 7 8 8 8 8 7 7 6 5 6 6 4 4 6 4 8 10 11 10 10 10 9
5 5 4 3 3 4 4 8 8 8 8 8 7 7 7 7 6 7 6 7 7 7 8 8 8 8 8 7 6 6 6 5 3 3 3 5 9 10 10 10 9 9 9
5 4 4 3 3 3 3 6 6 7 7 6 5 6 4 2 2 3 5 6 7 8 9 9 9 8 7 7 7 6 5 2 3 2 3 6 9 10 10 10 9 9 9
5 4 4 4 3 3 4 3 2 3 3 3 2 2 1 1 1 2 4 6 7 7 8 9 8 7 5 3 4 4 2 3 3 3 3 8 9 10 10 9 9 9 9
6 6 5 4 3 3 2 3 2 1 2 2 3 3 2 2 1 1 1 2 3 4 4 5 5 3 3 3 2 2 3 2 2 2 4 8 8 9 9 9 8 8 8
6 5 5 4 3 3 3 3 2 2 2 2 2 3 2 2 1 1 1 1 1 1 2 3 3 4 3 3 3 3 3 3 2 2 4 8 8 8 9 9 8 8 8
5 4 4 4 3 3 3 2 3 2 2 2 2 3 3 3 2 2 1 1 1 1 2 3 3 4 3 3 3 4 4 4 4 3 3 8 8 8 8 8 8 7 7
5 5 4 3 3 3 2 2 2 2 2 2 2 3 4 3 3 2 1 1 1 2 2 3 3 3 3 3 3 4 4 4 4 4 3 5 7 7 7 7 7 6 6
6 5 4 4 3 3 2 2 2 2 2 2 2 3 3 3 3 3 2 1 1 2 3 3 3 3 3 3 3 3 4 4 4 4 4 3 3 5 7 6 6 6 6
6 5 4 4 4 3 2 2 2 2 2 2 2 2 3 3 3 3 2 1 2 2 3 3 3 3 2 2 2 2 2 3 4 4 4 3 2 2 3 5 6 5 5
7 6 5 4 4 3 2 2 2 2 2 2 2 2 3 3 3 3 2 1 2 3 2 3 3 3 3 2 2 2 2 2 2 3 3 4 3 2 2 3 4 4 4
6 6 5 4 3 3 2 2 2 2 1 1 2 2 3 2 3 3 2 2 3 3 2 3 3 3 3 3 3 3 2 1 2 2 3 3 3 3 2 2 1 2 3
6 6 5 4 3 2 2 1 2 1 1 1 1 3 3 3 3 3 2 2 3 3 3 3 3 3 2 3 4 3 3 3 2 1 2 2 2 2 2 2 1 1 0
7 6 5 4 4 3 2 2 2 2 1 1 1 2 2 3 3 3 3 3 3 3 3 3 3 2 2 2 3 3 2 3 2 1 1 2 2 1 1 2 2 1 1
8 7 6 5 4 3 3 2 2 2 2 2 2 1 1 3 3 3 3 3 3 3 3 2 2 3 2 1 2 3 3 2 0 2 1 1 1 2 1 1 2 2 2
8 7 6 5 4 3 3 3 4 3 2 1 1 1 2 2 3 3 4 3 3 2 2 2 2 2 3 1 0 0 2 4 3 1 1 1 1 2 2 1 1 1 2
8 7 6 5 4 4 4 4 4 3 2 2 2 3 2 2 2 3 3 3 3 2 2 2 2 1 2 2 1 1 1 1 2 3 1 0 1 0 1 1 1 1 1
8 7 6 6 4 4 4 4 5 5 4 3 3 2 1 1 1 2 3 3 2 2 2 2 2 2 1 2 1 1 2 2 2 2 3 2 1 1 1 1 1 1 1
Wind_Direction
164 163 139 126 119 114 110 107 106 104 102 102 107 110 113 116 119 121 124 124 126 136 139 138 139 139 138 139 140 137 135 134 133 133 133 133 133 130 127 124 121 118 119
158 158 141 131 124 120 116 113 111 109 106 104 107 113 116 119 123 125 128 128 128 135 140 140 139 139 140 142 142 139 138 140 140 137 134 135 135 133 129 128 128 126 126
146 151 145 134 129 125 120 118 116 114 112 110 111 114 118 121 125 127 129 129 129 132 139 137 138 141 144 146 143 140 140 144 147 141 138 133 134 135 134 133 135 131 130
144 148 146 137 133 129 125 123 120 119 118 116 115 117 121 124 128 131 132 132 134 135 138 138 140 142 146 146 143 141 141 141 148 146 142 139 141 140 138 137 136 134 135
137 145 148 141 137 131 129 128 126 124 123 121 120 120 122 128 131 134 136 138 141 143 145 146 145 142 145 149 149 147 148 144 144 140 132 136 140 144 144 143 141 140 140
134 143 150 145 141 136 134 133 131 129 128 127 127 126 128 133 136 136 137 141 146 148 148 149 148 144 146 153 154 153 151 148 140 135 136 143 147 154 153 153 150 147 146
137 142 151 146 144 141 139 138 137 135 135 134 134 135 135 134 137 139 144 146 151 151 151 150 150 146 146 152 156 156 155 154 143 138 145 152 156 160 162 162 159 157 155
141 144 152 151 148 147 145 143 143 142 143 143 143 144 142 139 142 146 151 153 157 158 155 153 153 154 152 147 150 153 152 151 141 147 154 160 163 165 166 167 167 166 164
140 139 145 155 152 150 153 153 153 151 152 153 152 151 150 147 147 151 154 159 163 164 163 161 163 165 159 157 160 163 161 163 146 153 168 165 169 171 172 172 174 176 174
135 143 151 157 143 142 155 163 165 163 161 159 156 156 155 155 157 161 163 169 174 174 171 171 175 173 170 172 176 173 166 159 155 154 153 170 175 175 176 179 180 183 181
138 147 147 149 149 153 161 169 170 169 168 165 162 160 153 146 157 165 175 180 181 182 183 183 184 180 180 183 184 178 169 154 146 147 161 172 174 175 179 183 184 184 184
155 163 162 164 166 165 169 161 170 169 168 169 164 160 148 146 162 170 184 186 187 189 192 192 189 187 184 174 182 182 167 155 148 158 173 175 177 179 179 182 183 183 182
163 166 166 163 168 174 167 166 171 164 163 167 169 168 161 148 145 165 176 191 196 195 194 190 187 179 168 160 159 164 162 153 148 159 170 169 171 173 174 177 180 181 182
146 151 153 157 159 167 161 163 167 161 159 163 168 167 154 142 144 154 171 166 176 192 183 176 168 167 171 175 178 169 157 154 151 156 166 167 167 166 170 175 177 183 183
141 150 148 143 143 150 147 162 154 157 161 165 161 163 152 149 154 152 161 143 150 139 137 139 148 155 165 173 176 162 157 153 156 157 157 164 167 171 174 177 178 183 183
140 149 150 135 129 125 128 138 148 154 157 152 158 163 154 150 153 150 150 140 140 133 131 134 144 148 154 147 146 144 140 145 155 157 158 165 170 168 171 177 179 179 184
143 143 142 139 119 110 119 141 143 156 153 152 166 163 151 144 148 144 139 140 149 127 120 115 114 118 113 115 121 130 136 146 153 159 158 151 161 171 173 175 173 177 186
140 141 143 135 114 111 118 123 131 142 148 155 159 155 152 148 144 138 134 144 135 117 117 119 114 107 99 97 97 109 123 134 146 148 144 143 153 161 175 176 180 182 184
145 141 136 125 125 126 123 113 119 123 134 142 140 149 156 153 145 130 130 136 125 115 116 127 119 123 121 114 110 100 98 124 141 138 137 145 150 145 150 177 188 188 192
143 137 135 130 132 125 110 84 80 85 93 114 133 142 147 147 139 125 129 128 122 117 116 116 124 125 138 137 115 94 79 94 111 126 144 139 142 148 151 172 185 191 196
139 137 138 134 142 130 117 114 113 120 131 124 134 138 143 135 131 126 127 120 118 119 124 128 126 124 127 122 101 72 41 49 76 102 113 121 145 157 145 160 169 177 200
151 150 147 148 155 151 148 149 144 144 143 135 121 116 128 125 127 128 129 127 120 116 110 112 121 122 136 140 127 112 65 18 11 50 104 137 154 145 146 161 164 160 158
156 160 159 159 154 150 139 116 101 75 63 62 82 107 124 129 126 121 128 123 121 127 132 136 134 137 148 157 128 135 140 180 294 3 44 125 132 139 157 156 153 166 163
168 164 157 157 151 153 145 136 134 131 138 161 143 130 119 125 131 131 131 128 129 130 138 149 135 144 144 154 309 125 145 150 147 144 355 4 134 151 160 157 155 161 166
165 162 158 152 152 154 150 147 139 135 141 131 112 107 109 121 134 135 134 130 129 138 151 150 130 127 143 156 166 153 108 98 112 139 158 321 2 320 156 154 148 148 133
164 162 157 151 156 155 150 147 144 146 145 133 131 135 134 130 129 135 135 133 146 156 167 166 151 146 156 157 165 154 148 147 164 143 152 160 153 336 38 84 141 152 142